SWA4626 KLAS-KLGB

Flight info

Callsign SWA4626
Flight time 0h 44m
Altitude 34000
Route RADYR2 SLVRR DCT FEYLA ROOBY3
Aircraft B737/M-SDE2E3FGHIRWXY/LB1

Departure

Time 2026-05-05 23:01
Airport Harry Reid International Airport (KLAS)

Arrival

Time 2026-05-05 23:45
Airport Long Beach International Airport (KLGB)
Time Latitude Longitude Altitude Speed Heading
2026-05-05 22:07 36.08314 -115.15060 2096 ft 0 kts 245°
2026-05-05 22:37 36.08315 -115.15058 2096 ft 2 kts 245°
2026-05-05 22:38 36.08323 -115.15030 2096 ft 4 kts 263°
2026-05-05 22:38 36.08321 -115.14998 2096 ft 4 kts 298°
2026-05-05 22:38 36.08304 -115.14975 2096 ft 4 kts 335°
2026-05-05 22:38 36.08279 -115.14966 2096 ft 4 kts 355°
2026-05-05 22:39 36.08255 -115.14965 2096 ft 4 kts
2026-05-05 22:39 36.08229 -115.14971 2096 ft 4 kts 27°
2026-05-05 22:39 36.08207 -115.14989 2096 ft 4 kts 45°
2026-05-05 22:39 36.08190 -115.15014 2096 ft 2 kts 47°
2026-05-05 22:40 36.08189 -115.15016 2096 ft 0 kts 46°
2026-05-05 22:52 36.08189 -115.15015 2096 ft 0 kts 46°
2026-05-05 22:52 36.08194 -115.15003 2096 ft 4 kts 72°
2026-05-05 22:52 36.08179 -115.14971 2096 ft 5 kts 140°
2026-05-05 22:53 36.08144 -115.14948 2096 ft 7 kts 155°
2026-05-05 22:53 36.08096 -115.14921 2096 ft 8 kts 156°
2026-05-05 22:53 36.08048 -115.14895 2096 ft 7 kts 156°
2026-05-05 22:53 36.08002 -115.14869 2096 ft 7 kts 154°
2026-05-05 22:54 36.07953 -115.14840 2096 ft 9 kts 155°
2026-05-05 22:54 36.07882 -115.14814 2096 ft 12 kts 164°
2026-05-05 22:54 36.07853 -115.14729 2096 ft 11 kts 94°
2026-05-05 22:54 36.07847 -115.14633 2095 ft 11 kts 95°
2026-05-05 22:55 36.07841 -115.14540 2095 ft 11 kts 95°
2026-05-05 22:55 36.07834 -115.14449 2095 ft 10 kts 95°
2026-05-05 22:55 36.07829 -115.14362 2095 ft 10 kts 93°
2026-05-05 22:55 36.07828 -115.14272 2094 ft 12 kts 90°
2026-05-05 22:56 36.07828 -115.14157 2093 ft 15 kts 90°
2026-05-05 22:56 36.07828 -115.14030 2092 ft 15 kts 89°
2026-05-05 22:56 36.07828 -115.13909 2092 ft 14 kts 89°
2026-05-05 22:56 36.07829 -115.13800 2092 ft 13 kts 90°
2026-05-05 22:57 36.07829 -115.13687 2091 ft 13 kts 90°
2026-05-05 22:57 36.07829 -115.13579 2091 ft 13 kts 90°
2026-05-05 22:57 36.07829 -115.13472 2090 ft 12 kts 91°
2026-05-05 22:57 36.07813 -115.13374 2088 ft 12 kts 141°
2026-05-05 22:58 36.07757 -115.13312 2087 ft 12 kts 99°
2026-05-05 22:58 36.07755 -115.13203 2085 ft 13 kts 90°
2026-05-05 22:58 36.07755 -115.13079 2080 ft 16 kts 90°
2026-05-05 22:58 36.07755 -115.12933 2074 ft 18 kts 90°
2026-05-05 22:59 36.07755 -115.12784 2068 ft 20 kts 89°
2026-05-05 22:59 36.07755 -115.12637 2062 ft 8 kts 97°
2026-05-05 22:59 36.07709 -115.12606 2061 ft 8 kts 172°
2026-05-05 22:59 36.07656 -115.12613 2062 ft 8 kts 219°
2026-05-05 23:00 36.07641 -115.13225 2085 ft 94 kts 270°
2026-05-05 23:00 36.07640 -115.14292 2102 ft 151 kts 270°
2026-05-05 23:00 36.07646 -115.15708 2458 ft 171 kts 270°
2026-05-05 23:01 36.07659 -115.17150 3370 ft 160 kts 270°
2026-05-05 23:01 36.07696 -115.18531 4075 ft 168 kts 273°
2026-05-05 23:01 36.07732 -115.20089 4390 ft 203 kts 268°
2026-05-05 23:01 36.07517 -115.21901 4793 ft 226 kts 258°
2026-05-05 23:02 36.07191 -115.23865 5456 ft 240 kts 251°
2026-05-05 23:02 36.06313 -115.25622 6332 ft 247 kts 227°
2026-05-05 23:02 36.04852 -115.26894 6876 ft 270 kts 202°
2026-05-05 23:02 36.03056 -115.27709 7529 ft 278 kts 200°
2026-05-05 23:03 36.01218 -115.28524 8098 ft 284 kts 200°
2026-05-05 23:03 35.99362 -115.29350 9189 ft 286 kts 200°
2026-05-05 23:03 35.97417 -115.29993 10176 ft 294 kts 193°
2026-05-05 23:03 35.95343 -115.30498 10721 ft 317 kts 191°
2026-05-05 23:04 35.93065 -115.31015 11011 ft 346 kts 191°
2026-05-05 23:04 35.90655 -115.31564 11804 ft 355 kts 191°
2026-05-05 23:04 35.88223 -115.32130 12861 ft 357 kts 191°
2026-05-05 23:04 35.85782 -115.32711 13780 ft 364 kts 191°
2026-05-05 23:05 35.83290 -115.33314 14753 ft 368 kts 191°
2026-05-05 23:05 35.80746 -115.33934 15540 ft 377 kts 191°
2026-05-05 23:05 35.78175 -115.34562 16596 ft 379 kts 191°
2026-05-05 23:05 35.75564 -115.35202 17522 ft 384 kts 191°
2026-05-05 23:06 35.72917 -115.35850 18323 ft 393 kts 191°
2026-05-05 23:06 35.70214 -115.36511 19142 ft 395 kts 191°
2026-05-05 23:06 35.67504 -115.37174 19979 ft 400 kts 190°
2026-05-05 23:06 35.64752 -115.37846 20718 ft 406 kts 190°
2026-05-05 23:07 35.61988 -115.38704 21432 ft 414 kts 202°
2026-05-05 23:07 35.59546 -115.40526 22150 ft 420 kts 221°
2026-05-05 23:07 35.57492 -115.43121 22923 ft 424 kts 228°
2026-05-05 23:07 35.55508 -115.45844 23580 ft 431 kts 229°
2026-05-05 23:08 35.53507 -115.48628 24131 ft 437 kts 229°
2026-05-05 23:08 35.51479 -115.51435 24716 ft 442 kts 228°
2026-05-05 23:08 35.49415 -115.54259 25319 ft 446 kts 228°
2026-05-05 23:08 35.47319 -115.57100 25883 ft 451 kts 228°
2026-05-05 23:09 35.45195 -115.59960 26433 ft 456 kts 227°
2026-05-05 23:09 35.43039 -115.62854 26959 ft 461 kts 227°
2026-05-05 23:09 35.40895 -115.65728 27477 ft 465 kts 227°
2026-05-05 23:09 35.38671 -115.68710 27911 ft 470 kts 227°
2026-05-05 23:10 35.36477 -115.71650 27891 ft 476 kts 227°
2026-05-05 23:10 35.34238 -115.74647 27899 ft 475 kts 227°
2026-05-05 23:10 35.31993 -115.77655 27938 ft 484 kts 227°
2026-05-05 23:10 35.29706 -115.80721 28424 ft 485 kts 228°
2026-05-05 23:11 35.27459 -115.83731 29580 ft 474 kts 228°
2026-05-05 23:11 35.25238 -115.86705 30208 ft 474 kts 228°
2026-05-05 23:11 35.23006 -115.89688 30606 ft 476 kts 228°
2026-05-05 23:11 35.20744 -115.92653 31113 ft 475 kts 227°
2026-05-05 23:12 35.18459 -115.95547 31885 ft 468 kts 226°
2026-05-05 23:12 35.16230 -115.98335 32615 ft 462 kts 226°
2026-05-05 23:12 35.13986 -116.01132 33190 ft 460 kts 226°
2026-05-05 23:12 35.11756 -116.03918 33772 ft 455 kts 227°
2026-05-05 23:13 35.07350 -116.09444 33857 ft 454 kts 227°
2026-05-05 23:13 35.02935 -116.14997 33876 ft 456 kts 226°
2026-05-05 23:14 34.98498 -116.20568 33855 ft 458 kts 227°
2026-05-05 23:14 34.94123 -116.26049 33851 ft 447 kts 227°
2026-05-05 23:15 34.89789 -116.31472 33830 ft 449 kts 226°
2026-05-05 23:15 34.87571 -116.34248 32964 ft 464 kts 227°
2026-05-05 23:15 34.85337 -116.37083 32051 ft 464 kts 227°
2026-05-05 23:16 34.83106 -116.39933 31133 ft 466 kts 227°
2026-05-05 23:16 34.80859 -116.42805 30140 ft 470 kts 227°
2026-05-05 23:16 34.78593 -116.45696 29107 ft 471 kts 226°
2026-05-05 23:16 34.76344 -116.48560 28347 ft 465 kts 226°
2026-05-05 23:17 34.74124 -116.51382 27612 ft 459 kts 226°
2026-05-05 23:17 34.71923 -116.54176 26941 ft 453 kts 226°
2026-05-05 23:17 34.69793 -116.56877 26832 ft 434 kts 226°
2026-05-05 23:17 34.67633 -116.59401 25955 ft 435 kts 220°
2026-05-05 23:18 34.65288 -116.61707 25285 ft 432 kts 218°
2026-05-05 23:18 34.62911 -116.63926 24638 ft 428 kts 218°
2026-05-05 23:18 34.60562 -116.66123 24018 ft 424 kts 218°
2026-05-05 23:18 34.58246 -116.68329 23381 ft 420 kts 219°
2026-05-05 23:19 34.55974 -116.70530 22676 ft 416 kts 219°
2026-05-05 23:19 34.53758 -116.72694 22058 ft 411 kts 220°
2026-05-05 23:19 34.51546 -116.74855 21468 ft 405 kts 220°
2026-05-05 23:19 34.49365 -116.77057 20858 ft 400 kts 224°
2026-05-05 23:20 34.47382 -116.79310 20307 ft 393 kts 224°
2026-05-05 23:20 34.45436 -116.81620 19716 ft 389 kts 226°
2026-05-05 23:20 34.43515 -116.83912 19136 ft 385 kts 227°
2026-05-05 23:20 34.41603 -116.86171 18610 ft 382 kts 225°
2026-05-05 23:21 34.39692 -116.88403 17990 ft 380 kts 225°
2026-05-05 23:21 34.37796 -116.90606 17329 ft 376 kts 225°
2026-05-05 23:21 34.35912 -116.92789 16738 ft 372 kts 225°
2026-05-05 23:21 34.34050 -116.94945 16174 ft 367 kts 225°
2026-05-05 23:22 34.32240 -116.97034 15602 ft 362 kts 225°
2026-05-05 23:22 34.30423 -116.99123 15041 ft 358 kts 225°
2026-05-05 23:22 34.28627 -117.01184 14501 ft 353 kts 225°
2026-05-05 23:22 34.26845 -117.03207 13972 ft 350 kts 221°
2026-05-05 23:23 34.24880 -117.04858 13760 ft 339 kts 212°
2026-05-05 23:23 34.22836 -117.06261 13504 ft 335 kts 211°
2026-05-05 23:23 34.20812 -117.07647 13303 ft 335 kts 211°
2026-05-05 23:23 34.18783 -117.09077 13086 ft 337 kts 212°
2026-05-05 23:24 34.16756 -117.10507 12892 ft 336 kts 209°
2026-05-05 23:24 34.14700 -117.11780 12811 ft 337 kts 207°
2026-05-05 23:24 34.12566 -117.13012 12701 ft 340 kts 206°
2026-05-05 23:24 34.10427 -117.14235 12595 ft 339 kts 207°
2026-05-05 23:25 34.08299 -117.15461 12496 ft 339 kts 206°
2026-05-05 23:25 34.06173 -117.16693 12395 ft 339 kts 207°
2026-05-05 23:25 34.04046 -117.17932 12294 ft 339 kts 207°
2026-05-05 23:25 34.01922 -117.19173 12228 ft 340 kts 208°
2026-05-05 23:26 33.99791 -117.20424 12120 ft 341 kts 207°
2026-05-05 23:26 33.97650 -117.21679 11998 ft 342 kts 207°
2026-05-05 23:26 33.95485 -117.22916 11707 ft 347 kts 206°
2026-05-05 23:26 33.93288 -117.24114 11372 ft 347 kts 206°
2026-05-05 23:27 33.91088 -117.25297 11051 ft 344 kts 205°
2026-05-05 23:27 33.88917 -117.26473 10725 ft 339 kts 205°
2026-05-05 23:27 33.86803 -117.27624 10400 ft 326 kts 205°
2026-05-05 23:27 33.84787 -117.28719 10097 ft 311 kts 205°
2026-05-05 23:28 33.82865 -117.29785 9930 ft 294 kts 206°
2026-05-05 23:28 33.81063 -117.30852 9592 ft 286 kts 207°
2026-05-05 23:28 33.79316 -117.31902 9376 ft 282 kts 208°
2026-05-05 23:28 33.77570 -117.32952 9141 ft 280 kts 208°
2026-05-05 23:29 33.75823 -117.33997 8892 ft 280 kts 209°
2026-05-05 23:29 33.74078 -117.35038 8683 ft 280 kts 207°
2026-05-05 23:29 33.72330 -117.36078 8480 ft 281 kts 206°
2026-05-05 23:29 33.70579 -117.37118 8238 ft 281 kts 207°
2026-05-05 23:30 33.68836 -117.38152 8016 ft 278 kts 207°
2026-05-05 23:30 33.67692 -117.38830 7850 ft 275 kts 206°
2026-05-05 23:30 33.65416 -117.40178 7565 ft 270 kts 208°
2026-05-05 23:30 33.63732 -117.41176 7349 ft 269 kts 207°
2026-05-05 23:31 33.62061 -117.42166 7137 ft 265 kts 207°
2026-05-05 23:31 33.60409 -117.43142 6940 ft 264 kts 207°
2026-05-05 23:31 33.58825 -117.44213 6698 ft 258 kts 221°
2026-05-05 23:31 33.57827 -117.45894 6503 ft 249 kts 250°
2026-05-05 23:32 33.57490 -117.47885 6336 ft 240 kts 267°
2026-05-05 23:32 33.57444 -117.49878 6124 ft 238 kts 270°
2026-05-05 23:32 33.57427 -117.51860 5927 ft 238 kts 269°
2026-05-05 23:32 33.57401 -117.53842 5728 ft 237 kts 269°
2026-05-05 23:33 33.57369 -117.55819 5528 ft 236 kts 269°
2026-05-05 23:33 33.57339 -117.57765 5323 ft 236 kts 269°
2026-05-05 23:33 33.57308 -117.59732 5119 ft 235 kts 268°
2026-05-05 23:33 33.57275 -117.61678 4912 ft 232 kts 268°
2026-05-05 23:34 33.57242 -117.63596 4697 ft 227 kts 268°
2026-05-05 23:34 33.57209 -117.65471 4493 ft 222 kts 268°
2026-05-05 23:34 33.57186 -117.66714 4376 ft 220 kts 268°
2026-05-05 23:34 33.57152 -117.68507 4230 ft 214 kts 268°
2026-05-05 23:35 33.57119 -117.70285 4021 ft 207 kts 269°
2026-05-05 23:35 33.57336 -117.71984 3939 ft 209 kts 285°
2026-05-05 23:35 33.57730 -117.73667 3853 ft 213 kts 284°
2026-05-05 23:35 33.58118 -117.75367 3754 ft 211 kts 283°
2026-05-05 23:36 33.58500 -117.77056 3700 ft 210 kts 283°
2026-05-05 23:36 33.58880 -117.78760 3591 ft 211 kts 283°
2026-05-05 23:36 33.59255 -117.80451 3506 ft 209 kts 282°
2026-05-05 23:36 33.59627 -117.82135 3439 ft 209 kts 282°
2026-05-05 23:37 33.60000 -117.83841 3349 ft 213 kts 283°
2026-05-05 23:37 33.60379 -117.85567 3265 ft 213 kts 283°
2026-05-05 23:37 33.60754 -117.87281 3170 ft 212 kts 283°
2026-05-05 23:37 33.61125 -117.88975 3062 ft 208 kts 282°
2026-05-05 23:38 33.61543 -117.90609 3003 ft 203 kts 296°
2026-05-05 23:38 33.62462 -117.91847 3013 ft 198 kts 315°
2026-05-05 23:38 33.63430 -117.92971 3023 ft 194 kts 313°
2026-05-05 23:38 33.64339 -117.94162 3026 ft 191 kts 307°
2026-05-05 23:39 33.65267 -117.95278 3026 ft 192 kts 313°
2026-05-05 23:39 33.66212 -117.96368 3015 ft 185 kts 309°
2026-05-05 23:39 33.67115 -117.97445 3003 ft 183 kts 310°
2026-05-05 23:39 33.67901 -117.98384 3026 ft 179 kts 313°
2026-05-05 23:40 33.68784 -117.99423 3031 ft 176 kts 311°
2026-05-05 23:40 33.69644 -118.00458 3029 ft 175 kts 310°
2026-05-05 23:40 33.70509 -118.01492 2795 ft 176 kts 310°
2026-05-05 23:40 33.71353 -118.02508 2578 ft 168 kts 310°
2026-05-05 23:41 33.72157 -118.03482 2400 ft 162 kts 308°
2026-05-05 23:41 33.72934 -118.04423 2200 ft 159 kts 310°
2026-05-05 23:41 33.73699 -118.05351 2072 ft 154 kts 309°
2026-05-05 23:41 33.74417 -118.06219 1923 ft 140 kts 308°
2026-05-05 23:42 33.75069 -118.07011 1731 ft 128 kts 307°
2026-05-05 23:42 33.75684 -118.07758 1546 ft 122 kts 308°
2026-05-05 23:42 33.76280 -118.08481 1371 ft 122 kts 308°
2026-05-05 23:42 33.76886 -118.09220 1242 ft 124 kts 311°
2026-05-05 23:43 33.77508 -118.09967 1023 ft 129 kts 310°
2026-05-05 23:43 33.78114 -118.10672 910 ft 124 kts 308°
2026-05-05 23:43 33.78742 -118.11429 724 ft 126 kts 307°
2026-05-05 23:43 33.79345 -118.12163 563 ft 122 kts 309°
2026-05-05 23:44 33.79958 -118.12926 431 ft 129 kts 310°
2026-05-05 23:44 33.80602 -118.13714 237 ft 135 kts 312°
2026-05-05 23:44 33.81264 -118.14508 61 ft 133 kts 309°
2026-05-05 23:44 33.81880 -118.15275 53 ft 110 kts 316°
2026-05-05 23:45 33.82222 -118.15675 49 ft 22 kts 316°
2026-05-05 23:45 33.82328 -118.15731 60 ft 9 kts 359°
2026-05-05 23:45 33.82392 -118.15731 60 ft 9 kts
2026-05-05 23:45 33.82444 -118.15693 65 ft 9 kts 45°
2026-05-05 23:46 33.82469 -118.15659 66 ft 0 kts 57°
2026-05-05 23:46 33.82472 -118.15659 65 ft 1 kts 19°
2026-05-05 23:47 33.82475 -118.15665 65 ft 3 kts 311°
2026-05-05 23:47 33.82478 -118.15736 66 ft 12 kts 270°
2026-05-05 23:47 33.82478 -118.15846 65 ft 14 kts 270°
2026-05-05 23:47 33.82477 -118.15964 64 ft 14 kts 270°
2026-05-05 23:48 33.82477 -118.16080 64 ft 12 kts 264°
2026-05-05 23:48 33.82434 -118.16114 62 ft 9 kts 153°
2026-05-05 23:48 33.82382 -118.16053 62 ft 11 kts 134°
2026-05-05 23:48 33.82325 -118.15983 58 ft 12 kts 134°
2026-05-05 23:49 33.82267 -118.15912 62 ft 12 kts 136°
2026-05-05 23:49 33.82228 -118.15867 61 ft 13 kts 136°
2026-05-05 23:49 33.82156 -118.15782 53 ft 16 kts 134°
2026-05-05 23:49 33.82093 -118.15703 55 ft 13 kts 135°
2026-05-05 23:50 33.82023 -118.15618 52 ft 15 kts 135°
2026-05-05 23:50 33.81939 -118.15517 49 ft 18 kts 135°
2026-05-05 23:50 33.81853 -118.15414 51 ft 17 kts 135°
2026-05-05 23:50 33.81771 -118.15314 51 ft 17 kts 135°
2026-05-05 23:51 33.81687 -118.15213 53 ft 17 kts 135°
2026-05-05 23:51 33.81607 -118.15116 53 ft 16 kts 135°
2026-05-05 23:51 33.81558 -118.15026 49 ft 11 kts 75°
2026-05-05 23:51 33.81609 -118.14962 51 ft 11 kts 43°
2026-05-05 23:52 33.81665 -118.14896 54 ft 11 kts 45°
2026-05-05 23:52 33.81718 -118.14831 54 ft 11 kts 45°
2026-05-05 23:52 33.81775 -118.14775 55 ft 10 kts 31°
2026-05-05 23:52 33.81790 -118.14725 57 ft 4 kts 99°
2026-05-05 23:53 33.81781 -118.14678 51 ft 8 kts 97°
2026-05-05 23:53 33.81780 -118.14645 53 ft 4 kts 85°
2026-05-05 23:53 33.81781 -118.14615 49 ft 3 kts 89°
2026-05-05 23:53 33.81781 -118.14607 51 ft 0 kts 89°